Regional Weather Roundup
Issued by NWS

Home | Current Version | Previous Version | Graphics & Text | Print | Product List | Glossary On
Versions: 1 2 3 4 5 6 7 8 9 10 11 12 13 14 15 16 17 18 19 20 21 22 23 24 25 26 27 28 29 30 31 32 33 34 35 36 37 38 39 40 41 42 43 44 45 46 47 48 49 50
000
ASUS45 KPSR 010700
RWRAZ

ARIZONA HOURLY REGIONAL WEATHER ROUNDUP
NATIONAL WEATHER SERVICE PHOENIX AZ
1200 AM MST WED JUL 01 2015

NOTE: FAIR INDICATES FEW OR NO CLOUDS BELOW 12,000 FEET WITH NO
SIGNIFICANT WEATHER AND/OR OBSTRUCTIONS TO VISIBILITY.

AZZ001>003-036-010800-
NORTHWEST ARIZONA

CITY           SKY/WX    TMP DP  RH WIND       PRES   REMARKS
KINGMAN        PTCLDY    87  55  33 S10       29.95S
$$

AZZ004>008-015-016-018-010800-
NORTH CENTRAL ARIZONA

CITY           SKY/WX    TMP DP  RH WIND       PRES   REMARKS
GRAND CANYON   MOCLDY    60  58  92 CALM      30.22F
WILLIAMS       PTCLDY    63  54  72 S5        30.31F
PRESCOTT       CLOUDY    77  58  51 SW5       30.09F
FLAGSTAFF      NOT AVBL
PAYSON         MOCLDY    70  63  78 CALM      30.12S
PAGE           PTCLDY    89  42  19 W3        29.98S
$$

AZZ009>014-017-010800-
NORTHEAST ARIZONA

CITY           SKY/WX    TMP DP  RH WIND       PRES   REMARKS
WINSLOW        NOT AVBL
SAINT JOHNS    CLEAR     68  56  65 CALM      30.14S
WINDOW ROCK    PTCLDY    67  50  54 NE3       30.23F
SHOW LOW       CLEAR     63  54  72 S10       30.22S
$$

AZZ023-010800-
GREATER PHOENIX AREA

CITY           SKY/WX    TMP DP  RH WIND       PRES   REMARKS
PHOENIX        CLOUDY    96  61  31 W12       29.80R
LUKE AFB       CLOUDY    93  61  33 SW18      29.79R
DEER VALLEY    MOCLDY    93  59  31 SW16G24   29.82R
SCOTTSDALE     MOCLDY    94  59  31 SW3       29.85R
MESA-GATEWAY   MOCLDY    88  63  42 SW18G26   29.87R
$$

AZZ027-028-010800-
SOUTHWEST MARICOPA COUNTY AND PINAL COUNTY

CITY           SKY/WX    TMP DP  RH WIND       PRES   REMARKS
CASA GRANDE    MOCLDY    82  68  61 S21G29    29.86R
GILA BEND      LGT RAIN  82  70  66 SW17G24   29.82F
$$

AZZ503-504-507>509-010800-
SOUTHEAST ARIZONA

CITY           SKY/WX    TMP DP  RH WIND       PRES   REMARKS
TUCSON         CLOUDY    75  63  66 SE13      30.05R
DAVIS-MONTHAN  CLOUDY    73  65  76 SE8       30.03S
NOGALES        CLOUDY    69  65  86 W5        30.12S
SIERRA VISTA   CLOUDY    67  64  91 E5        30.14F
SAFFORD        MOCLDY    84  61  45 SE9       29.96R
$$

AZZ020-021-025-026-031-010800-
SOUTHWEST ARIZONA

CITY           SKY/WX    TMP DP  RH WIND       PRES   REMARKS
YUMA           NOT AVBL
$$

CAZ031-033-041-043-047-048-061-010800-
SOUTHERN CALIFORNIA

CITY           SKY/WX    TMP DP  RH WIND       PRES   REMARKS
DOWNTOWN L.A.  CLEAR     69  63  81 CALM      29.86R
L.A. AIRPORT   PTCLDY    67  63  87 W12       29.87R
SAN DIEGO      MOCLDY    72  65  78 S3        29.88S
BURBANK        CLEAR     76  59  55 E3        29.86R
ONTARIO        PTCLDY    78  51  38 W5        29.86F
RIVERSIDE      CLEAR     79  54  41 W5        29.87R
PALM SPRINGS   PTCLDY    91  59  33 S3        29.77R
EL CENTRO NAS  PTCLDY    91  61  36 S10       29.75S
IMPERIAL       PTCLDY    93  61  34 S10       29.73R
BLYTHE         MOCLDY    95  59  30 S7        29.74R
$$

NVZ020-UTZ003-010800-
SOUTHERN NEVADA-UTAH

CITY           SKY/WX    TMP DP  RH WIND       PRES   REMARKS
LAS VEGAS      NOT AVBL
SALT LAKE CITY CLOUDY    80  56  43 W6        30.11R
$$

NMZ009-TXZ055-010800-
NEW MEXICO-WEST TEXAS

CITY           SKY/WX    TMP DP  RH WIND       PRES   REMARKS
ALBUQUERQUE    CLEAR     78  43  28 SE8       30.16S
EL PASO        MOCLDY    77  52  41 SE5       30.09R
$$


........................KEY........................
SKY/WX - SKY CONDITION/WEATHER
TMP    - TEMPERATURE IN FAHRENHEIT
DP     - DEW POINT IN FAHRENHEIT
RH     - RELATIVE HUMIDITY IN PERCENT
WIND   - DIRECTION AND SPEED IN MILES PER HOUR (MPH)
VRB    - VARIABLE WIND DIRECTION
PRES   - MEAN SEA LEVEL PRESSURE IN INCHES OF MERCURY
         F - FALLING PRESSURE   R - RISING PRESSURE
         S - STEADY PRESSURE
VSB    - VISIBILITY IN MILES
HX     - HEAT INDEX IN FAHRENHEIT
WCI    - WIND CHILL INDEX IN FAHRENHEIT
TC     - TEMPERATURE IN CELSIUS WHICH IS ALSO KNOWN AS
         TEMPERATURE IN CENTIGRADE
AFB    - AIR FORCE BASE
         LUKE AFB IS LUKE AIR FORCE BASE
         DAVIS-MONTHAN IS DAVIS-MONTHAN AIR FORCE BASE
NAS    - NAVAL AIR STATION
         EL CENTRO NAS IS EL CENTRO NAVAL AIR STATION
N/A    - NOT AVAILABLE




USA.gov is the U.S. government's official web portal to all federal, state and local government web resources and services.